Kuchera_Ratio
0.0 0.0 0.0 0.0 0.0 0.0 0.0 0.0 0.0 0.0 0.0 0.0 0.0 0.0 0.0 0.0 0.0 0.0 0.0 0.0 0.0 0.0 0.0 0.0 0.0 0.0 0.0 0.0 0.0 0.0 0.0 0.0 0.0 0.0 0.0 0.0 0.0 0.0 0.0 0.0 0.0 0.0 0.0 0.0 0.0 0.0 0.0 0.0 0.0 0.0 0.0 0.0
0.0 0.0 0.0 0.0 0.0 0.0 0.0 0.0 0.0 0.0 0.0 0.0 0.0 0.0 0.0 0.0 0.0 0.0 0.0 0.0 0.0 0.0 0.0 0.0 0.0 0.0 0.0 0.0 0.0 0.0 0.0 0.0 0.0 0.0 0.0 0.0 0.0 0.0 0.0 0.0 0.0 0.0 0.0 0.0 0.0 0.0 0.0 0.0 0.0 0.0 0.0 0.0
0.0 0.0 0.0 0.0 0.0 0.0 0.0 0.0 0.0 0.0 0.0 0.0 0.0 0.0 0.0 0.0 0.0 0.0 0.0 0.0 0.0 0.0 0.0 0.0 0.0 0.0 0.0 0.0 0.0 0.0 0.0 0.0 0.0 0.0 0.0 0.0 0.0 0.0 0.0 0.0 0.0 0.0 0.0 0.0 0.0 0.0 0.0 0.0 0.0 0.0 0.0 0.0
0.0 0.0 0.0 0.0 0.0 0.0 0.0 0.0 0.0 0.0 0.0 0.0 0.0 0.0 0.0 0.0 0.0 0.0 0.0 0.0 0.0 0.0 0.0 0.0 0.0 0.0 0.0 0.0 0.0 0.0 0.0 0.0 0.0 0.0 0.0 0.0 0.0 0.0 0.0 0.0 0.0 0.0 0.0 0.0 0.0 0.0 0.0 0.0 0.0 0.0 0.0 0.2
0.0 0.0 0.0 0.0 0.0 0.0 0.0 0.0 0.0 0.0 0.0 0.0 0.0 0.0 0.0 0.0 0.0 0.0 0.0 0.0 0.0 0.0 0.0 0.0 0.0 0.0 0.0 0.0 0.0 0.0 0.0 0.0 0.0 0.0 0.0 0.0 0.0 0.0 0.0 0.0 0.0 0.0 0.0 0.0 0.0 0.0 0.0 0.0 0.4 0.8 1.1 1.1
0.0 0.0 0.0 0.0 0.0 0.0 0.0 0.0 0.0 0.0 0.0 0.0 0.0 0.0 0.0 0.0 0.0 0.0 0.0 0.0 0.0 0.0 0.0 0.0 0.0 0.0 0.0 0.0 0.0 0.0 0.0 0.0 0.0 0.0 0.0 0.0 0.0 0.0 0.0 0.0 0.0 0.0 0.0 0.0 0.0 0.0 0.0 1.3 1.7 2.0 1.9 2.0
0.0 0.0 0.0 0.0 0.0 0.0 0.0 0.0 0.0 0.0 0.0 0.0 0.0 0.0 0.0 0.0 0.0 0.0 0.0 0.0 0.0 0.0 0.0 0.0 0.0 0.0 0.0 0.0 0.0 0.0 0.0 0.0 0.0 0.0 0.0 0.0 0.0 0.0 0.0 0.6 1.3 1.4 1.3 1.2 0.0 0.0 2.2 2.6 2.5 2.5 2.6 3.1
0.0 0.0 0.0 0.0 0.0 0.0 0.0 0.0 0.0 0.0 0.0 0.0 0.0 0.0 0.0 0.0 0.0 0.0 0.0 0.0 0.0 0.0 0.0 0.0 0.0 0.0 0.0 0.0 0.0 0.0 0.0 0.0 0.0 0.0 0.0 0.0 0.0 0.0 0.9 2.1 2.2 1.9 1.8 2.1 2.6 3.0 3.1 3.1 3.2 3.7 4.2 4.7
0.0 0.0 0.0 0.0 0.0 0.0 0.0 0.0 0.0 0.0 0.0 0.0 0.0 0.0 0.0 0.0 0.0 0.0 0.0 0.0 0.1 0.8 1.0 1.8 2.2 2.0 2.6 2.5 2.1 0.0 1.1 0.7 0.6 0.8 1.1 1.6 2.0 2.5 2.7 2.7 2.5 2.4 2.8 3.3 3.6 3.7 3.8 4.2 4.8 5.3 5.5 5.4
0.0 0.0 0.0 0.0 0.0 0.0 0.0 0.0 0.0 0.0 0.0 0.0 0.0 0.0 0.0 0.0 0.0 0.0 0.0 0.0 0.9 1.6 2.3 2.6 3.2 3.1 3.0 2.6 2.1 1.7 1.6 1.6 1.8 2.1 2.5 2.9 3.2 3.3 3.2 3.1 3.1 3.5 3.9 4.1 4.3 4.6 5.1 5.6 5.9 5.9 5.8 5.9
0.0 0.0 0.0 0.0 0.0 0.0 0.0 0.0 0.0 0.0 0.0 0.0 0.0 0.0 0.0 0.0 0.0 0.0 0.0 0.6 1.4 2.2 2.9 3.1 3.4 3.4 3.1 2.6 2.2 2.2 2.4 2.7 2.8 3.1 3.4 3.5 3.4 3.6 3.8 3.9 4.1 4.4 4.6 4.8 5.3 5.9 6.1 6.2 6.2 6.3 6.6 7.0
0.0 0.0 0.0 0.0 0.0 0.0 0.0 0.0 0.0 0.0 0.0 0.0 0.0 0.0 0.0 0.0 0.0 0.0 0.0 1.0 1.7 2.4 3.0 3.2 3.6 3.6 3.1 2.7 2.7 2.9 3.2 3.6 3.9 4.2 4.4 4.0 3.9 4.1 4.4 4.5 4.7 4.9 5.3 5.8 6.2 6.4 6.2 6.1 6.4 6.9 7.4 7.9
0.0 0.0 0.0 0.0 0.0 0.0 0.0 0.0 0.0 0.0 0.0 0.0 0.0 0.0 0.0 0.0 0.0 0.0 0.5 1.5 2.0 2.8 3.2 3.4 3.7 3.7 3.3 3.2 3.4 3.8 4.3 4.8 5.0 5.1 5.2 5.1 4.6 4.6 4.8 4.8 4.5 4.5 5.3 5.9 6.0 6.3 6.3 6.1 6.4 7.1 7.7 8.2
0.0 0.0 0.0 0.0 0.0 0.0 0.0 0.0 0.0 0.0 0.0 0.0 0.0 0.0 0.0 0.0 0.0 0.3 1.2 1.9 2.6 3.4 3.4 3.5 3.9 3.8 3.8 4.0 4.3 4.8 5.3 5.5 5.6 5.6 5.6 5.3 5.2 5.1 5.2 5.2 4.5 4.3 5.1 5.6 5.7 6.0 6.3 6.6 6.9 7.4 7.9 8.4
0.0 0.0 0.0 0.0 0.0 0.0 0.0 0.0 0.0 0.0 0.0 0.0 0.0 0.0 0.0 0.0 0.0 0.8 1.7 2.4 3.0 3.6 3.5 3.5 3.8 3.9 4.0 4.4 5.1 5.5 5.7 5.7 5.7 5.7 5.5 5.4 5.5 5.6 5.4 5.2 4.2 4.1 4.9 5.2 5.6 5.8 6.1 6.6 7.1 7.5 8.1 8.6
0.0 0.0 0.0 0.0 0.0 0.0 0.0 0.0 0.0 0.0 0.0 0.0 0.0 0.0 0.0 0.0 0.3 1.2 2.1 2.9 3.3 3.6 3.7 3.7 3.8 4.2 4.5 4.9 5.6 5.8 5.9 5.9 5.9 5.9 5.8 5.9 5.9 5.7 5.2 4.9 4.2 3.8 4.6 5.2 5.5 5.9 6.2 6.4 6.9 7.6 8.2 9.0
0.0 0.0 0.0 0.0 0.0 0.0 0.0 0.0 0.0 0.0 0.0 0.0 0.0 0.0 0.0 0.0 1.0 1.7 2.6 3.2 3.4 3.6 3.7 4.0 4.3 4.7 4.9 5.4 6.1 6.1 5.8 6.2 6.4 6.4 6.6 6.7 5.6 5.4 5.5 6.0 5.4 4.4 5.1 5.8 5.4 5.6 6.3 6.3 6.6 7.5 8.3 9.2
0.0 0.0 0.0 0.0 0.0 0.0 0.0 0.0 0.0 0.0 0.0 0.0 0.0 0.0 0.0 0.6 1.6 2.4 3.1 3.6 3.8 3.8 3.9 4.4 5.0 5.4 5.4 5.9 6.5 6.5 6.1 6.7 7.0 7.2 7.6 7.9 7.2 6.1 7.1 7.7 6.6 5.8 10.5 6.5 6.2 5.9 6.2 6.4 6.5 7.4 8.5 9.1
0.0 0.0 0.0 0.0 0.0 0.0 0.0 0.0 0.0 0.0 0.0 0.0 0.0 0.0 0.2 1.2 2.2 3.0 3.7 4.1 4.2 4.1 4.3 4.8 5.5 5.8 5.9 6.5 6.8 6.9 6.7 7.0 7.8 8.2 8.6 8.6 9.2 7.8 8.1 8.4 7.2 6.9 11.5 11.8 10.9 6.7 6.0 6.4 6.6 7.2 8.4 8.9
0.0 0.0 0.0 0.0 0.0 0.0 0.0 0.0 0.0 0.0 0.0 0.0 0.0 0.0 0.8 1.9 2.8 3.6 4.2 4.6 4.7 4.7 4.6 5.2 6.0 6.2 6.3 6.8 7.3 7.5 7.3 7.2 7.8 8.8 9.6 9.5 9.4 10.0 10.7 11.1 11.5 7.9 11.4 11.1 12.0 6.4 6.1 6.1 6.4 7.4 8.2 8.8
0.0 0.0 0.0 0.0 0.0 0.0 0.0 0.0 0.0 0.0 0.0 0.0 0.0 0.2 1.4 2.6 3.5 4.2 4.6 4.9 5.2 5.2 5.0 5.6 6.4 6.5 6.6 7.0 7.4 7.8 7.8 7.6 7.9 8.5 9.3 10.2 10.6 10.8 11.2 11.7 11.6 11.6 11.3 10.8 11.5 6.8 6.6 6.1 6.1 7.4 8.1 8.4
0.0 0.0 0.0 0.0 0.0 0.0 0.0 0.0 0.0 0.0 0.0 0.0 0.0 0.7 2.0 3.2 3.9 4.5 4.9 5.1 5.3 5.4 5.6 6.1 6.9 7.0 6.9 7.3 7.7 7.8 7.9 7.8 8.2 8.9 9.4 10.1 10.5 11.6 11.8 11.9 11.9 11.7 11.5 11.2 11.2 11.8 11.7 6.4 6.4 6.9 7.7 8.4
0.0 0.0 0.0 0.0 0.0 0.0 0.0 0.0 0.0 0.0 0.0 0.1 0.4 1.3 2.8 3.7 4.3 4.7 5.0 5.4 5.4 5.4 5.8 6.5 7.2 7.3 7.2 7.6 8.1 8.1 8.2 7.9 8.1 9.2 10.3 10.6 10.8 11.5 12.0 11.9 11.9 11.8 11.5 11.5 11.3 11.4 11.5 6.4 7.1 6.8 6.9 7.7
0.0 0.0 0.0 0.0 0.0 0.0 0.0 0.0 0.0 0.0 0.0 0.4 0.9 2.0 3.5 4.4 4.7 4.8 5.1 5.6 5.8 5.9 6.1 6.9 7.4 7.4 7.4 7.9 8.3 8.6 8.8 8.6 8.4 8.8 10.0 11.1 11.3 11.4 11.9 11.9 12.0 12.0 12.0 11.8 11.7 11.9 12.1 11.8 6.9 6.9 7.1 7.6
0.0 0.0 0.0 0.0 0.0 0.0 0.0 0.0 0.0 0.0 0.4 0.8 1.3 2.7 4.2 5.0 5.0 4.9 5.4 5.9 6.1 6.2 6.4 7.1 7.5 7.4 7.4 8.0 8.7 9.1 9.3 9.4 9.2 8.8 9.1 10.4 11.6 11.8 11.9 12.0 12.0 12.1 12.3 12.1 11.8 12.2 12.8 13.2 11.9 6.2 6.6 12.6
0.0 0.0 0.0 0.0 0.0 0.0 0.0 0.0 0.0 0.2 0.9 1.3 1.9 3.3 4.6 5.3 5.4 5.4 5.9 6.4 6.5 6.4 6.5 7.3 7.9 7.6 7.3 8.0 9.1 9.6 9.8 10.1 10.1 9.6 9.3 9.8 11.2 12.1 12.1 12.1 12.2 12.3 12.4 12.4 12.4 12.7 13.3 13.3 12.9 12.5 12.6 12.7
0.0 0.2 0.1 0.0 0.0 0.0 0.0 0.0 0.0 0.9 1.4 1.9 2.6 3.9 5.0 5.4 5.6 5.8 6.3 6.9 7.1 6.9 6.6 7.2 8.1 8.3 7.8 7.9 9.0 9.9 10.1 10.3 10.4 10.4 10.4 10.5 11.2 12.1 12.3 12.3 12.4 12.6 12.8 13.0 13.4 13.6 14.3 15.2 15.2 13.0 12.9 12.8
0.2 0.2 0.0 0.0 0.0 0.0 0.0 0.0 1.0 1.9 2.3 2.7 3.5 4.8 5.7 5.9 6.0 6.2 6.7 7.3 7.6 7.7 7.3 7.4 8.2 8.8 8.8 8.4 8.9 10.0 10.6 10.6 10.7 10.9 11.3 11.6 11.9 12.2 12.4 12.5 12.7 13.0 13.3 13.5 13.7 13.9 14.5 15.3 15.6 16.0 15.5 15.4
0.0 0.0 0.0 0.0 0.0 0.0 0.0 1.3 1.8 1.9 2.3 2.8 3.7 5.0 5.9 6.4 6.5 6.6 7.0 7.6 7.9 8.4 8.4 8.4 8.8 9.4 9.5 9.3 9.3 10.1 10.9 11.1 11.2 11.3 11.4 11.9 12.2 12.3 12.4 12.7 13.0 13.2 13.7 13.9 14.1 14.2 14.3 14.8 15.3 16.1 15.9 15.1
0.0 0.0 0.0 0.0 0.0 0.0 0.0 0.0 0.5 1.2 2.0 2.5 3.4 4.7 5.7 6.3 6.7 6.9 7.2 7.6 8.1 8.6 8.9 9.1 9.4 9.9 10.0 9.9 10.0 10.4 10.8 11.0 11.4 11.6 11.7 12.0 12.3 12.4 12.6 13.0 13.3 13.4 13.8 14.2 14.5 14.7 14.7 15.1 15.5 15.8 15.6 15.1
0.0 0.0 0.5 0.2 0.0 0.0 0.0 0.0 0.3 1.5 2.6 3.0 3.6 4.7 5.6 6.1 6.6 7.1 7.4 7.8 8.3 8.8 9.1 9.3 9.7 10.0 10.3 10.4 10.6 10.9 11.1 11.1 11.3 11.8 12.1 12.3 12.5 12.7 13.1 13.3 13.5 13.6 14.0 14.4 14.7 14.9 15.1 15.5 15.7 15.5 15.4 15.3